LiveATC.Net - Listen to live air traffic control over the Internet!


ICAO: KGKY  IATA: GKY   Airport: Arlington Municipal Airport
City: Arlington   State/Province: Texas
Country: United States   Continent: North America
KGKY METAR Weather: KGKY 060853Z AUTO 16007KT 10SM CLR 28/19 A2991 RMK AO2 SLP117 T02830189 55000
KGKY Flight Activity (FlightAware)
KGKY Airport Info   (iFlightPlanner)
KGKY VFR Sectional Chart   (iFlightPlanner) 
KGKY IFR Low Altitude Chart   (iFlightPlanner) 
KGKY IFR High Altitude Chart   (iFlightPlanner) 

KGKY Ground/Tower
Feed Status: UP   Listeners: 0
Listen in your browser - HTML5 player (in browser, HTML5)
Click here to listen with your own player (launches your MP3 player)
Archive Access: KGKY Ground/Tower
FacilityFrequency
Arlington Ground121.875
Arlington Tower128.625
Feed sponsored by: Lone Star Communications

NOTICE

Unauthorized use prohibited. See LiveATC.net Terms of Service


Airport/ARTCC Code
Frequency Search
(e.g., 124.400, 128.75)
Site-wide search
 


Browse Feeds
Top 50 Feeds
HF Oceanic Feeds
Coverage Map
Bad Weather Areas

LiveATC FAQ
Offer LiveATC feed
Contact LiveATC.net
Press Inquiries

LiveATC on iPhone
LiveATC on Android

LiveATC Mobile
(Mobile browser)

ATC Audio Archives
Interesting Recordings

LiveATC Forums


Home Page
About LiveATC.net


Terms of Use
Privacy Policy

AIRMETs/SIGMETs

FAA Airport Status
NAS Status
Arrival Demand


Server Software By:
Icecast.org
Liquidsoap